Find Starlink 34868

NORAD ID: 65648 Int'l Des: 2025-210 Owner: SPXS Country: US Constellation: starlink operational
LEOCIRCULAR

实时位置

正在加载3D地球...

关于 Starlink 34868

正在加载描述...

即将过境

Passes for default location (London). Set your location on the main map for personalized predictions.

高度历史

Loading altitude history...

两行轨道根数

1 65648U 25210AC 26105.81232219 .00010076 00000-0 35189-3 0 9994
2 65648 53.1592 134.7147 0001353 93.5061 266.6094 15.30198315 33419
Epoch: Apr 15, 2026 • Age: 11 hours

当前状态

高度 479.9 km
速度 7.63 km/s
星下点 -16.00°S, 179.86°W
发射日期 Sep 18, 2025
运行时间 0.5 years
类型 internet

技术详情

分类 Payload
质量 575.00 kg
干质量 530.00 kg
总质量 575.00 kg
长度 0.30 m
直径 4.10 m
跨度 29.00 m
形状 Box + pan
制造商 SPXS
平台类型 Starlink V2MO
阶段状态 In Orbit
所有者/国家 SPXS/US

Most Searched